KA6UPU-1 Weather Reports


Display with metric or nautical units.
time (UTC)temp
F
wind
direction
speed
MPH
gust
MPH
rain 1hr
in
rain 24hr
in
rain mn
in
humidity
%
barometer
mb
20260506190715 73 0 0.0 9.0 0.00 0.00 0.00 55 1019.7
20260506190218 73 89 2.0 9.0 0.00 0.00 0.00 57 1019.6
20260506185716 73 0 0.0 8.0 0.00 0.00 0.00 59 1019.6
20260506185215 72 0 0.0 8.0 0.00 0.00 0.00 59 1019.7
20260506184215 71 0 0.0 4.0 0.00 0.00 0.00 62 1019.8
20260506183716 71 32 1.0 4.0 0.00 0.00 0.00 62 1019.8
20260506182215 71 359 1.0 8.0 0.00 0.00 0.00 63 1019.9
20260506181427 70 60 1.0 7.0 0.00 0.00 0.00 62 1019.9
20260506180927 70 44 1.0 7.0 0.00 0.00 0.00 63 1019.9
20260506180426 69 133 2.0 6.0 0.00 0.00 0.00 64 1019.9
20260506175926 69 0 0.0 4.0 0.00 0.00 0.00 63 1019.9
20260506175426 69 0 0.0 4.0 0.00 0.00 0.00 65 1019.9
20260506174926 69 91 1.0 4.0 0.00 0.00 0.00 65 1019.9
20260506174427 68 0 0.0 4.0 0.00 0.00 0.00 66 1019.9
20260506173926 68 312 1.0 4.0 0.00 0.00 0.00 65 1020.0
20260506173426 68 0 0.0 4.0 0.00 0.00 0.00 67 1020.0
20260506172927 67 46 1.0 3.0 0.00 0.00 0.00 68 1020.0
20260506172427 67 284 1.0 4.0 0.00 0.00 0.00 66 1020.0
20260506171926 67 327 2.0 4.0 0.00 0.00 0.00 67 1020.1
20260506171426 67 14 1.0 4.0 0.00 0.00 0.00 67 1020.1
20260506170926 67 80 1.0 6.0 0.00 0.00 0.00 67 1020.1
20260506170426 67 11 1.0 6.0 0.00 0.00 0.00 68 1020.2
20260506165926 67 0 0.0 5.0 0.00 0.00 0.00 68 1020.1
20260506165426 66 0 0.0 5.0 0.00 0.00 0.00 69 1020.1
20260506164926 66 0 0.0 4.0 0.00 0.00 0.00 70 1020.1
20260506164426 66 137 1.0 5.0 0.00 0.00 0.00 68 1020.1
20260506163926 66 0 0.0 7.0 0.00 0.00 0.00 69 1020.2
20260506163426 66 130 2.0 7.0 0.00 0.00 0.00 69 1020.2
20260506162926 65 132 1.0 7.0 0.00 0.00 0.00 70 1020.2
20260506162427 65 152 1.0 4.0 0.00 0.00 0.00 71 1020.2
20260506161514 64 181 3.0 6.0 0.00 0.00 0.00 71 1020.2
20260506161014 63 297 1.0 5.0 0.00 0.00 0.00 72 1020.2
20260506160514 63 0 0.0 5.0 0.00 0.00 0.00 73 1020.2
20260506160014 63 0 0.0 6.0 0.00 0.00 0.00 74 1020.3
20260506155514 63 280 1.0 6.0 0.00 0.00 0.00 73 1020.3
20260506154953 63 181 1.0 5.0 0.00 0.00 0.00 75 1020.3
20260506154453 62 0 0.0 4.0 0.00 0.00 0.00 76 1020.3
20260506153953 62 159 1.0 5.0 0.00 0.00 0.00 76 1020.3
20260506153453 61 164 1.0 5.0 0.00 0.00 0.00 76 1020.4
20260506152453 61 0 0.0 4.0 0.00 0.00 0.00 78 1020.4
20260506151953 60 240 1.0 4.0 0.00 0.00 0.00 80 1020.4
20260506151453 60 0 0.0 2.0 0.00 0.00 0.00 82 1020.3
20260506150953 59 0 0.0 4.0 0.00 0.00 0.00 82 1020.3
20260506150453 59 0 0.0 4.0 0.00 0.00 0.00 83 1020.4
20260506145453 57 0 0.0 3.0 0.00 0.00 0.00 86 1020.3
20260506144953 57 0 0.0 3.0 0.00 0.00 0.00 87 1020.3
20260506143953 56 0 0.0 1.0 0.00 0.00 0.00 90 1020.3
20260506143453 55 0 0.0 1.0 0.00 0.00 0.00 91 1020.2
20260506142953 55 0 0.0 1.0 0.00 0.00 0.00 91 1020.3
20260506142453 54 0 0.0 1.0 0.00 0.00 0.00 92 1020.2
20260506141953 54 0 0.0 0.0 0.00 0.00 0.00 91 1020.1
20260506141453 53 0 0.0 0.0 0.00 0.00 0.00 91 1020.1
20260506140953 53 0 0.0 0.0 0.00 0.00 0.00 91 1020.0
20260506140453 53 0 0.0 0.0 0.00 0.00 0.00 91 1020.0
20260506135953 53 0 0.0 0.0 0.00 0.00 0.00 91 1019.9
20260506135453 53 0 0.0 0.0 0.00 0.00 0.00 91 1019.8
20260506134953 53 0 0.0 0.0 0.00 0.00 0.00 91 1019.7
20260506134453 53 0 0.0 0.0 0.00 0.00 0.00 91 1019.7
20260506133953 53 0 0.0 0.0 0.00 0.00 0.00 90 1019.7
20260506133453 53 0 0.0 0.0 0.00 0.00 0.00 91 1019.8
20260506132953 53 0 0.0 0.0 0.00 0.00 0.00 91 1019.7
20260506132453 53 0 0.0 1.0 0.00 0.00 0.00 90 1019.6
20260506131953 54 0 0.0 1.0 0.00 0.00 0.00 91 1019.7
20260506131453 54 0 0.0 0.0 0.00 0.00 0.00 91 1019.6
20260506130953 54 0 0.0 0.0 0.00 0.00 0.00 91 1019.6
20260506125953 54 0 0.0 0.0 0.00 0.00 0.00 91 1019.5
20260506124953 54 0 0.0 0.0 0.00 0.00 0.00 91 1019.5
20260506124453 54 0 0.0 0.0 0.00 0.00 0.00 91 1019.4
20260506123953 54 0 0.0 0.0 0.00 0.00 0.00 91 1019.4
20260506122953 54 0 0.0 0.0 0.00 0.00 0.00 91 1019.4
20260506122453 54 0 0.0 0.0 0.00 0.00 0.00 91 1019.4
20260506121953 54 0 0.0 0.0 0.00 0.00 0.00 91 1019.4
20260506121453 54 0 0.0 0.0 0.00 0.00 0.00 91 1019.3
20260506120953 54 0 0.0 0.0 0.00 0.00 0.00 91 1019.3
20260506120453 54 0 0.0 0.0 0.00 0.00 0.00 91 1019.2
20260506115952 54 0 0.0 0.0 0.00 0.00 0.00 91 1019.3
20260506115453 54 0 0.0 0.0 0.00 0.00 0.00 91 1019.2
20260506114452 53 0 0.0 0.0 0.00 0.00 0.00 91 1019.2
20260506113952 53 0 0.0 0.0 0.00 0.00 0.00 91 1019.2
20260506113453 53 0 0.0 0.0 0.00 0.00 0.00 91 1019.2
20260506112952 53 0 0.0 0.0 0.00 0.00 0.00 91 1019.1
20260506112452 53 0 0.0 0.0 0.00 0.00 0.00 91 1019.0
20260506111955 53 0 0.0 0.0 0.00 0.00 0.00 91 1019.0
20260506111452 53 0 0.0 0.0 0.00 0.00 0.00 91 1018.9
20260506110952 53 0 0.0 0.0 0.00 0.00 0.00 91 1018.8
20260506110452 53 0 0.0 0.0 0.00 0.00 0.00 91 1018.8
20260506105953 53 0 0.0 0.0 0.00 0.00 0.00 91 1018.8
20260506105452 53 0 0.0 0.0 0.00 0.00 0.00 91 1018.9
20260506104952 53 0 0.0 0.0 0.00 0.00 0.00 91 1018.8
20260506104452 53 0 0.0 0.0 0.00 0.00 0.00 91 1018.8
20260506103952 53 0 0.0 0.0 0.00 0.00 0.00 91 1018.8
20260506103452 53 0 0.0 2.0 0.00 0.00 0.00 91 1018.8
20260506102952 53 0 0.0 2.0 0.00 0.00 0.00 91 1018.8
20260506102452 53 0 0.0 0.0 0.00 0.00 0.00 91 1018.8
20260506101952 53 0 0.0 0.0 0.00 0.00 0.00 91 1018.7
20260506101452 53 0 0.0 0.0 0.00 0.00 0.00 91 1018.7
20260506100952 53 0 0.0 1.0 0.00 0.00 0.00 91 1018.6
20260506100452 53 0 0.0 1.0 0.00 0.00 0.00 91 1018.6
20260506095952 53 0 0.0 0.0 0.00 0.00 0.00 91 1018.6
20260506095452 53 0 0.0 0.0 0.00 0.00 0.00 91 1018.6
20260506094952 52 0 0.0 1.0 0.00 0.00 0.00 91 1018.7
20260506094452 52 0 0.0 1.0 0.00 0.00 0.00 91 1018.7
20260506093952 52 0 0.0 0.0 0.00 0.00 0.00 91 1018.7
20260506093453 52 0 0.0 0.0 0.00 0.00 0.00 91 1018.7
20260506092952 52 0 0.0 0.0 0.00 0.00 0.00 91 1018.6
20260506092453 52 0 0.0 0.0 0.00 0.00 0.00 90 1018.6
20260506091952 52 0 0.0 0.0 0.00 0.00 0.00 90 1018.7
20260506090952 52 0 0.0 0.0 0.00 0.00 0.00 90 1018.8
20260506090452 52 0 0.0 2.0 0.00 0.00 0.00 90 1018.8
20260506085952 52 0 0.0 2.0 0.00 0.00 0.00 90 1018.7
20260506084952 51 0 0.0 1.0 0.00 0.01 0.00 89 1018.8
20260506084452 51 0 0.0 1.0 0.00 0.01 0.00 89 1018.7
20260506084304 51 0 0.0 1.0 0.00 0.01 0.00 89 1018.7
20260506083952 51 0 0.0 1.0 0.00 0.01 0.00 89 1018.7
20260506083452 51 0 0.0 1.0 0.00 0.01 0.00 88 1018.6
20260506082952 51 0 0.0 0.0 0.00 0.01 0.00 88 1018.6
20260506082452 51 0 0.0 0.0 0.00 0.01 0.00 88 1018.7
20260506081952 51 0 0.0 3.0 0.00 0.02 0.00 87 1018.7
20260506080952 51 0 0.0 1.0 0.00 0.02 0.00 87 1018.6
20260506080452 52 0 0.0 1.0 0.00 0.03 0.00 87 1018.6
20260506073452 52 0 0.0 1.0 0.00 0.07 0.00 87 1018.5
20260506072952 52 0 0.0 1.0 0.00 0.07 0.00 87 1018.5
20260506072453 52 0 0.0 1.0 0.00 0.08 0.00 87 1018.5
20260506071452 52 0 0.0 5.0 0.00 0.08 0.00 86 1018.4
20260506070952 52 0 0.0 5.0 0.00 0.09 0.00 86 1018.3
20260506070452 52 0 0.0 3.0 0.00 0.10 0.00 85 1018.2
20260506062241 53 0 0.0 0.0 0.00 0.12 0.10 84 1017.9
20260506061741 53 0 0.0 0.0 0.00 0.13 0.10 84 1017.8
20260506061241 53 0 0.0 0.0 0.00 0.13 0.10 84 1017.8
20260506060741 54 0 0.0 0.0 0.00 0.13 0.10 83 1017.7
20260506060241 54 0 0.0 0.0 0.00 0.13 0.10 84 1017.8
20260506051241 55 0 0.0 2.0 0.00 0.16 0.10 82 1017.4
20260506050741 55 0 0.0 2.0 0.00 0.17 0.10 81 1017.4
20260506050241 55 0 0.0 2.0 0.00 0.17 0.10 81 1017.4
20260506044910 56 0 0.0 3.0 0.00 0.18 0.10 81 1017.2
20260506044411 56 0 0.0 3.0 0.00 0.19 0.10 81 1017.2
20260506043910 56 0 0.0 4.0 0.00 0.20 0.10 80 1017.1
20260506042910 56 0 0.0 6.0 0.00 0.21 0.10 80 1016.9
20260506042410 56 0 0.0 6.0 0.00 0.21 0.10 80 1016.9
20260506041911 57 311 1.0 5.0 0.00 0.21 0.10 79 1016.9
20260506041410 57 289 1.0 8.0 0.00 0.21 0.10 79 1016.7
20260506040910 57 295 1.0 8.0 0.00 0.21 0.10 79 1016.8
20260506040410 57 0 0.0 6.0 0.00 0.21 0.10 78 1016.7
20260506035910 57 307 1.0 7.0 0.00 0.21 0.10 78 1016.6
20260506035410 57 299 2.0 7.0 0.00 0.21 0.10 78 1016.6
20260506034910 57 286 3.0 6.0 0.00 0.21 0.10 78 1016.6
20260506034410 57 275 2.0 9.0 0.00 0.21 0.10 77 1016.5
20260506033910 58 301 2.0 9.0 0.00 0.21 0.10 77 1016.4
20260506032910 58 291 3.0 12.0 0.00 0.21 0.10 76 1016.3
20260506032410 58 309 3.0 11.0 0.00 0.21 0.10 76 1016.1
20260506031910 58 287 4.0 9.0 0.00 0.21 0.10 77 1016.0
20260506031410 58 266 2.0 9.0 0.00 0.21 0.10 77 1015.9
20260506030910 58 286 3.0 8.0 0.00 0.21 0.10 77 1015.8
20260506030410 58 302 3.0 11.0 0.00 0.21 0.10 77 1015.7
20260506025910 58 267 5.0 11.0 0.00 0.21 0.10 76 1015.7
20260506025310 58 272 3.0 9.0 0.00 0.21 0.10 76 1015.6
20260506024810 59 288 3.0 12.0 0.00 0.21 0.10 76 1015.7
20260506024310 59 280 3.0 12.0 0.00 0.21 0.10 76 1015.6
20260506023810 59 278 1.0 11.0 0.00 0.21 0.10 75 1015.6
20260506023310 59 272 3.0 11.0 0.00 0.21 0.10 75 1015.6
20260506022810 59 272 5.0 12.0 0.00 0.21 0.10 75 1015.6
20260506022310 59 280 5.0 12.0 0.00 0.21 0.10 74 1015.5
20260506021810 59 293 5.0 11.0 0.00 0.21 0.10 74 1015.6
20260506021310 59 283 5.0 11.0 0.00 0.21 0.10 74 1015.4
20260506020810 59 304 3.0 10.0 0.00 0.21 0.10 74 1015.4
20260506015311 60 291 5.0 12.0 0.00 0.21 0.10 74 1015.2
20260506014810 60 269 4.0 12.0 0.00 0.21 0.10 73 1015.1
20260506013309 60 274 2.0 11.0 0.00 0.21 0.10 74 1015.0
20260506012809 60 293 1.0 11.0 0.00 0.21 0.10 74 1015.0
20260506012309 60 286 6.0 12.0 0.00 0.21 0.10 73 1015.0
20260506011809 61 288 5.0 13.0 0.00 0.21 0.10 74 1015.1
20260506011309 61 287 5.0 13.0 0.00 0.21 0.10 74 1015.2
20260506010809 61 295 6.0 11.0 0.00 0.21 0.10 74 1015.2
20260506005309 61 297 3.0 9.0 0.00 0.21 0.10 74 1015.1
20260506004310 61 260 4.0 11.0 0.00 0.21 0.10 74 1014.9
20260506003809 61 290 3.0 10.0 0.00 0.21 0.10 74 1014.9
20260506002809 61 269 3.0 11.0 0.00 0.21 0.10 74 1014.9
20260506001809 62 283 7.0 11.0 0.00 0.21 0.10 74 1014.9
20260506001310 62 292 5.0 13.0 0.00 0.21 0.10 74 1014.8
20260506000311 62 291 2.0 11.0 0.00 0.21 0.10 75 1014.9
20260505235809 62 299 6.0 11.0 0.00 0.21 0.10 74 1014.9
20260505235309 62 298 3.0 12.0 0.00 0.21 0.10 74 1014.9
20260505234809 63 309 5.0 12.0 0.00 0.21 0.10 74 1014.9
20260505234310 63 282 5.0 10.0 0.00 0.21 0.10 74 1014.9
20260505233809 63 259 4.0 11.0 0.00 0.21 0.10 73 1014.9
20260505233309 63 300 4.0 11.0 0.00 0.21 0.10 73 1014.9
20260505232809 63 298 1.0 9.0 0.00 0.21 0.10 74 1014.9
20260505232309 63 296 3.0 9.0 0.00 0.21 0.10 74 1014.9
20260505231809 63 296 3.0 9.0 0.00 0.21 0.10 73 1015.0
20260505231309 63 295 4.0 9.0 0.00 0.21 0.10 73 1014.9
20260505230809 63 261 3.0 8.0 0.00 0.21 0.10 74 1014.9
20260505230310 62 258 1.0 7.0 0.00 0.21 0.10 74 1015.0
20260505225809 62 276 2.0 8.0 0.00 0.21 0.10 74 1015.0
20260505225309 62 271 4.0 8.0 0.00 0.21 0.10 75 1015.0
20260505224809 62 262 3.0 8.0 0.00 0.21 0.10 74 1015.0
20260505224309 62 294 2.0 8.0 0.00 0.21 0.10 74 1015.0
20260505223809 62 253 3.0 7.0 0.00 0.21 0.10 74 1015.0
20260505222810 62 273 1.0 7.0 0.00 0.21 0.10 74 1015.0
20260505222309 62 205 1.0 8.0 0.00 0.21 0.10 74 1015.0
20260505221809 62 256 1.0 8.0 0.00 0.21 0.10 73 1015.0
20260505221309 63 249 4.0 8.0 0.00 0.21 0.10 73 1015.0
20260505220809 63 268 3.0 8.0 0.00 0.21 0.10 73 1015.0
20260505220309 63 229 2.0 6.0 0.00 0.21 0.10 73 1015.0
20260505215809 63 240 1.0 7.0 0.00 0.21 0.10 73 1015.0
20260505214809 63 284 2.0 7.0 0.00 0.21 0.10 73 1015.1
20260505214309 63 284 3.0 7.0 0.00 0.21 0.10 72 1015.1
20260505213809 63 261 2.0 8.0 0.00 0.21 0.10 72 1015.2
20260505212809 64 302 3.0 8.0 0.00 0.21 0.10 71 1015.2
20260505212309 64 256 2.0 8.0 0.00 0.21 0.10 71 1015.2
20260505211809 64 304 1.0 8.0 0.00 0.21 0.10 70 1015.1
20260505211309 64 280 2.0 11.0 0.00 0.21 0.10 72 1015.1
20260505210809 64 319 3.0 11.0 0.00 0.21 0.10 72 1015.2
20260505210309 63 336 2.0 8.0 0.00 0.21 0.10 74 1015.2
20260505204809 63 339 2.0 8.0 0.00 0.21 0.10 73 1015.3
20260505203809 63 254 3.0 10.0 0.00 0.21 0.10 72 1015.3
20260505203309 63 267 2.0 10.0 0.00 0.21 0.10 73 1015.3
20260505202809 63 279 4.0 10.0 0.00 0.21 0.10 75 1015.3
20260505201809 63 266 2.0 6.0 0.00 0.21 0.10 75 1015.4
20260505201309 62 304 2.0 6.0 0.00 0.21 0.10 77 1015.4
20260505200811 61 321 2.0 9.0 0.00 0.21 0.10 76 1015.5
20260505200310 61 317 3.0 10.0 0.00 0.21 0.10 77 1015.6
20260505195809 61 334 4.0 11.0 0.00 0.21 0.10 76 1015.6
20260505195309 61 352 4.0 11.0 0.00 0.21 0.10 77 1015.5
20260505194809 61 341 4.0 9.0 0.00 0.21 0.10 77 1015.6
20260505193846 61 16 1.0 7.0 0.00 0.21 0.10 77 1015.5
20260505193346 61 0 0.0 6.0 0.00 0.21 0.10 77 1015.6
20260505192846 61 303 1.0 7.0 0.00 0.21 0.10 77 1015.5
20260505192346 61 319 2.0 7.0 0.00 0.21 0.10 77 1015.6
20260505191846 61 0 0.0 7.0 0.00 0.21 0.10 77 1015.6